Home   Weather   Constanța   Past weeks

Flag for Romania Past Weather in Constanța, Romania — Yesterday and Last 2 Weeks

Now
79 °F

Sunny.


Feels Like: 79 °F
Forecast: 64 / 77 °F
Wind: 1 mph from Northeast

Location: Constanta

Current Time: Aug 31, 2016 at 7:08:49 PM

Latest Report: Aug 31, 2016 at 6:00 PM


Visibility: 6 mi

Pressure: 30.11 "Hg

Humidity: 40%

Dew Point: 52 °F

Location of ConstanțaLocation

Past Weather in Constanța — Graph

°F

Constanța Temperature Yesterday

Maximum temperature yesterday: 85 °F (at 4:00 PM)
Minimum temperature yesterday: 66 °F (at 7:00 AM)
Average temperature yesterday: 75 °F

High & Low Weather Summary for the Past Weeks

 TemperatureHumidityPressure
High88 °F (Aug 23, 4:00 PM)92% (Aug 19, 2:00 AM)30.16 "Hg (Aug 19, 2:00 AM)
Low66 °F (Aug 30, 7:00 AM)33% (Aug 31, 2:00 PM)29.84 "Hg (Aug 17, 7:00 PM)
Average76 °F66%29.98 "Hg
* Reported Aug 16 6:00 PM — Aug 31 6:00 PM, Constanța, Weather by CustomWeather, © 2016

Note: Actual official high and low records may vary slightly from our data, if they occured in-between our weather recording intervals... More about our weather records

Advertising

Constanța Weather History for the Previous 24 Hours

Scroll right to see more
 ConditionsComfort  
Time TempWeatherWind HumidityBarometerVisibility
6:00 PM
Wed, Aug 31
79 °FSunny.1 mph40%30.11 "Hg6 mi
5:00 PM79 °FPassing clouds.1 mph41%30.11 "Hg6 mi
4:00 PM79 °FPassing clouds.2 mph45%30.11 "Hg6 mi
3:00 PM79 °FScattered clouds.3 mph40%30.12 "Hg6 mi
2:00 PM82 °FPassing clouds.2 mph33%30.12 "Hg6 mi
1:00 PM80 °FSunny.1 mph38%30.12 "Hg6 mi
12:00 PM76 °FSunny.3 mph46%30.12 "Hg6 mi
11:00 AM79 °FPassing clouds.2 mph51%30.12 "Hg6 mi
10:00 AM75 °FScattered clouds.2 mph60%30.10 "Hg6 mi
9:00 AM72 °FOvercast.2 mph66%30.08 "Hg6 mi
8:00 AM72 °FPartly sunny.3 mph67%30.08 "Hg6 mi
7:00 AM72 °FPartly sunny.3 mph68%30.05 "Hg6 mi
6:00 AM72 °FPassing clouds.3 mph67%30.03 "Hg6 mi
5:00 AM73 °FPassing clouds.5 mph65%30.02 "Hg6 mi
4:00 AM74 °FPassing clouds.5 mph62%30.00 "Hg6 mi
3:00 AM75 °FPassing clouds.5 mph64%29.98 "Hg6 mi
2:00 AM76 °FPassing clouds.5 mph68%29.98 "Hg6 mi
1:00 AM75 °FPassing clouds.5 mph71%29.97 "Hg6 mi
12:00 AM75 °FPassing clouds.3 mph71%29.97 "Hg6 mi
11:00 PM
Tue, Aug 30
76 °FPassing clouds.1 mph67%29.96 "Hg6 mi
10:00 PM76 °FPassing clouds.1 mph65%29.95 "Hg6 mi
9:00 PM75 °FPassing clouds.1 mph74%29.93 "Hg6 mi
8:00 PM79 °FPassing clouds.No wind58%29.91 "Hg6 mi
7:00 PM82 °FScattered clouds.1 mph55%29.90 "Hg6 mi
Weather by CustomWeather, © 2016

See weather overviewHow to use our weather pages